Time,TemperatureF,DewpointF,PressureIn,WindDirection,WindDirectionDegrees,WindSpeedMPH,WindSpeedGustMPH,Humidity,HourlyPrecipIn,Conditions,Clouds,dailyrainin,SoftwareType,DateUTC
2014-04-20 00:02:00,33.8,14.2,29.94,SSW,202,0.0,0.0,44,0.00,,---,0.00,VWS V14.01,2014-04-20 04:02:00,
2014-04-20 00:03:00,33.6,14.6,29.94,SSW,202,0.0,0.0,45,0.00,,---,0.00,VWS V14.01,2014-04-20 04:03:00,
2014-04-20 00:05:00,33.4,14.4,29.94,SSW,202,0.0,0.0,45,0.00,,---,0.00,VWS V14.01,2014-04-20 04:05:00,
2014-04-20 00:07:00,33.3,14.2,29.94,SSW,202,0.0,0.0,45,0.00,,---,0.00,VWS V14.01,2014-04-20 04:07:00,
2014-04-20 00:09:00,33.3,14.2,29.94,SSW,202,0.0,0.0,45,0.00,,---,0.00,VWS V14.01,2014-04-20 04:09:00,
2014-04-20 00:11:00,33.3,14.2,29.94,SSW,202,0.0,0.0,45,0.00,,---,0.00,VWS V14.01,2014-04-20 04:11:00,
2014-04-20 00:16:00,32.9,13.9,29.94,SSW,202,0.0,0.0,45,0.00,,---,0.00,VWS V14.01,2014-04-20 04:16:00,
2014-04-20 00:21:00,32.5,14.6,29.94,SW,225,0.0,0.0,47,0.00,,---,0.00,VWS V14.01,2014-04-20 04:21:00,
2014-04-20 00:26:00,32.4,14.4,29.94,SW,225,0.0,0.0,47,0.00,,---,0.00,VWS V14.01,2014-04-20 04:26:00,
2014-04-20 00:31:00,32.2,14.2,29.97,SW,225,0.0,0.0,47,0.00,,---,0.00,VWS V14.01,2014-04-20 04:31:00,
2014-04-20 00:36:00,32.0,15.0,29.97,SW,225,0.0,0.0,49,0.00,,---,0.00,VWS V14.01,2014-04-20 04:36:00,
2014-04-20 00:41:00,31.6,14.7,29.97,SW,225,0.0,0.0,49,0.00,,---,0.00,VWS V14.01,2014-04-20 04:41:00,
2014-04-20 00:46:00,31.3,14.8,29.97,SW,225,0.0,0.0,50,0.00,,---,0.00,VWS V14.01,2014-04-20 04:46:00,
2014-04-20 00:51:00,30.9,14.9,29.97,SW,225,0.0,0.0,51,0.00,,---,0.00,VWS V14.01,2014-04-20 04:51:00,
2014-04-20 00:56:00,30.7,14.8,29.97,SW,225,0.0,0.0,51,0.00,,---,0.00,VWS V14.01,2014-04-20 04:56:00,
2014-04-20 01:01:00,30.4,14.4,29.97,SW,225,0.0,0.0,51,0.00,,---,0.00,VWS V14.01,2014-04-20 05:01:00,
2014-04-20 01:06:00,30.2,14.3,29.97,SW,225,0.0,0.0,51,0.00,,---,0.00,VWS V14.01,2014-04-20 05:06:00,
2014-04-20 01:11:00,30.0,14.5,29.97,SW,225,0.0,0.0,52,0.00,,---,0.00,VWS V14.01,2014-04-20 05:11:00,
2014-04-20 01:16:00,29.7,14.2,29.97,WSW,248,0.0,0.0,52,0.00,,---,0.00,VWS V14.01,2014-04-20 05:16:00,
2014-04-20 01:21:00,29.5,14.0,29.97,WSW,248,0.0,0.0,52,0.00,,---,0.00,VWS V14.01,2014-04-20 05:21:00,
2014-04-20 01:26:00,29.5,14.5,29.97,ENE,68,0.0,0.0,53,0.00,,---,0.00,VWS V14.01,2014-04-20 05:26:00,
2014-04-20 01:31:00,29.3,14.7,29.97,ENE,68,0.0,0.0,54,0.00,,---,0.00,VWS V14.01,2014-04-20 05:31:00,
2014-04-20 01:36:00,29.1,15.0,29.97,ENE,68,0.0,0.0,55,0.00,,---,0.00,VWS V14.01,2014-04-20 05:36:00,
2014-04-20 01:41:00,28.9,14.8,29.97,NNW,338,0.0,0.0,55,0.00,,---,0.00,VWS V14.01,2014-04-20 05:41:00,
2014-04-20 01:46:00,28.8,14.2,29.97,WSW,248,0.0,0.0,54,0.00,,---,0.00,VWS V14.01,2014-04-20 05:46:00,
2014-04-20 01:51:00,28.8,14.2,29.97,WSW,248,0.0,0.0,54,0.00,,---,0.00,VWS V14.01,2014-04-20 05:51:00,
2014-04-20 01:56:00,28.6,14.1,29.97,WSW,248,0.0,0.0,54,0.00,,---,0.00,VWS V14.01,2014-04-20 05:56:00,
2014-04-20 02:01:00,28.4,14.3,29.97,WSW,248,0.0,0.0,55,0.00,,---,0.00,VWS V14.01,2014-04-20 06:01:00,
2014-04-20 02:06:00,28.4,14.3,29.97,SW,225,0.0,0.0,55,0.00,,---,0.00,VWS V14.01,2014-04-20 06:06:00,
2014-04-20 02:11:00,28.2,14.1,29.97,South,180,0.0,0.0,55,0.00,,---,0.00,VWS V14.01,2014-04-20 06:11:00,
2014-04-20 02:16:00,28.0,14.4,29.97,ENE,68,0.0,0.0,56,0.00,,---,0.00,VWS V14.01,2014-04-20 06:16:00,
2014-04-20 02:21:00,27.9,14.2,29.97,ENE,68,0.0,0.0,56,0.00,,---,0.00,VWS V14.01,2014-04-20 06:21:00,
2014-04-20 02:26:00,27.9,14.2,29.97,ENE,68,0.0,0.0,56,0.00,,---,0.00,VWS V14.01,2014-04-20 06:26:00,
2014-04-20 02:31:00,27.7,14.0,29.97,ENE,68,0.0,0.0,56,0.00,,---,0.00,VWS V14.01,2014-04-20 06:31:00,
2014-04-20 02:36:00,27.5,13.9,29.97,ENE,68,0.0,0.0,56,0.00,,---,0.00,VWS V14.01,2014-04-20 06:36:00,
2014-04-20 02:41:00,27.9,14.2,29.97,South,180,0.0,0.0,56,0.00,,---,0.00,VWS V14.01,2014-04-20 06:41:00,
2014-04-20 02:46:00,27.9,14.2,29.97,South,180,0.0,0.0,56,0.00,,---,0.00,VWS V14.01,2014-04-20 06:46:00,
2014-04-20 02:51:00,27.9,14.2,29.97,SSW,202,0.0,0.0,56,0.00,,---,0.00,VWS V14.01,2014-04-20 06:51:00,
2014-04-20 02:56:00,27.7,14.0,29.97,SSW,202,0.0,0.0,56,0.00,,---,0.00,VWS V14.01,2014-04-20 06:56:00,
2014-04-20 03:01:00,27.5,14.3,29.97,SSW,202,0.0,0.0,57,0.00,,---,0.00,VWS V14.01,2014-04-20 07:01:00,
2014-04-20 03:06:00,27.5,14.3,29.97,SSW,202,0.0,0.0,57,0.00,,---,0.00,VWS V14.01,2014-04-20 07:06:00,
2014-04-20 03:11:00,27.3,14.5,29.97,SSW,202,0.0,0.0,58,0.00,,---,0.00,VWS V14.01,2014-04-20 07:11:00,
2014-04-20 03:16:00,27.3,14.5,29.97,SSW,202,0.0,0.0,58,0.00,,---,0.00,VWS V14.01,2014-04-20 07:16:00,
2014-04-20 03:21:00,27.3,14.1,29.97,WSW,248,0.0,0.0,57,0.00,,---,0.00,VWS V14.01,2014-04-20 07:21:00,
2014-04-20 03:26:00,27.3,14.5,29.97,WSW,248,0.0,0.0,58,0.00,,---,0.00,VWS V14.01,2014-04-20 07:26:00,
2014-04-20 03:31:00,27.3,14.9,29.97,WSW,248,0.0,0.0,59,0.00,,---,0.00,VWS V14.01,2014-04-20 07:31:00,
2014-04-20 03:36:00,27.5,14.7,29.97,SW,225,0.0,0.0,58,0.00,,---,0.00,VWS V14.01,2014-04-20 07:36:00,
2014-04-20 03:41:00,27.3,14.5,29.97,SW,225,0.0,0.0,58,0.00,,---,0.00,VWS V14.01,2014-04-20 07:41:00,
2014-04-20 03:46:00,27.3,14.5,30.00,SW,225,0.0,0.0,58,0.00,,---,0.00,VWS V14.01,2014-04-20 07:46:00,
2014-04-20 03:51:00,27.1,14.3,30.00,SSW,202,0.0,0.0,58,0.00,,---,0.00,VWS V14.01,2014-04-20 07:51:00,
2014-04-20 03:56:00,27.1,14.7,30.00,WSW,248,0.0,0.0,59,0.00,,---,0.00,VWS V14.01,2014-04-20 07:56:00,
2014-04-20 04:01:00,27.0,14.6,30.00,SW,225,0.0,0.0,59,0.00,,---,0.00,VWS V14.01,2014-04-20 08:01:00,
2014-04-20 04:06:00,27.5,15.1,30.00,WNW,292,3.4,3.4,59,0.00,,---,0.00,VWS V14.01,2014-04-20 08:06:00,
2014-04-20 04:11:00,27.7,15.2,30.00,SSW,202,0.0,1.6,59,0.00,,---,0.00,VWS V14.01,2014-04-20 08:11:00,
2014-04-20 04:16:00,27.9,15.0,30.00,SSW,202,0.0,0.0,58,0.00,,---,0.00,VWS V14.01,2014-04-20 08:16:00,
2014-04-20 04:21:00,27.5,14.7,30.00,SSW,202,0.0,0.0,58,0.00,,---,0.00,VWS V14.01,2014-04-20 08:21:00,
2014-04-20 04:26:00,27.0,14.6,30.00,SSW,202,0.0,0.0,59,0.00,,---,0.00,VWS V14.01,2014-04-20 08:26:00,
2014-04-20 04:31:00,27.0,14.2,30.00,SSW,202,0.0,0.0,58,0.00,,---,0.00,VWS V14.01,2014-04-20 08:31:00,
2014-04-20 04:36:00,26.6,14.2,30.00,WSW,248,0.0,0.0,59,0.00,,---,0.00,VWS V14.01,2014-04-20 08:36:00,
2014-04-20 04:41:00,26.4,13.7,30.00,NNE,22,0.0,0.0,58,0.00,,---,0.00,VWS V14.01,2014-04-20 08:41:00,
2014-04-20 04:46:00,26.2,13.5,30.00,NNE,22,0.0,0.0,58,0.00,,---,0.00,VWS V14.01,2014-04-20 08:46:00,
2014-04-20 04:51:00,26.1,13.3,30.00,WSW,248,0.0,0.0,58,0.00,,---,0.00,VWS V14.01,2014-04-20 08:51:00,
2014-04-20 04:56:00,26.1,13.7,30.00,WSW,248,0.0,0.0,59,0.00,,---,0.00,VWS V14.01,2014-04-20 08:56:00,
2014-04-20 05:01:00,25.9,13.5,30.00,West,270,0.0,0.0,59,0.00,,---,0.00,VWS V14.01,2014-04-20 09:01:00,
2014-04-20 05:06:00,25.7,13.4,30.00,WSW,248,0.0,0.0,59,0.00,,---,0.00,VWS V14.01,2014-04-20 09:06:00,
2014-04-20 05:11:00,25.7,13.8,30.00,WSW,248,0.0,0.0,60,0.00,,---,0.00,VWS V14.01,2014-04-20 09:11:00,
2014-04-20 05:16:00,25.7,13.8,30.00,WSW,248,0.0,0.0,60,0.00,,---,0.00,VWS V14.01,2014-04-20 09:16:00,
2014-04-20 05:21:00,25.7,13.8,30.00,WSW,248,0.0,0.0,60,0.00,,---,0.00,VWS V14.01,2014-04-20 09:21:00,
2014-04-20 05:26:00,25.7,13.8,30.00,SSW,202,0.0,0.0,60,0.00,,---,0.00,VWS V14.01,2014-04-20 09:26:00,
2014-04-20 05:31:00,25.5,13.6,30.00,SW,225,0.0,0.0,60,0.00,,---,0.00,VWS V14.01,2014-04-20 09:31:00,
2014-04-20 05:36:00,25.3,13.4,30.00,SW,225,0.0,0.0,60,0.00,,---,0.00,VWS V14.01,2014-04-20 09:36:00,
2014-04-20 05:41:00,25.3,13.4,30.00,SW,225,0.0,0.0,60,0.00,,---,0.00,VWS V14.01,2014-04-20 09:41:00,
2014-04-20 05:46:00,25.3,13.4,30.03,SW,225,0.0,0.0,60,0.00,,---,0.00,VWS V14.01,2014-04-20 09:46:00,
2014-04-20 05:51:00,25.2,13.6,30.03,SW,225,0.0,0.0,61,0.00,,---,0.00,VWS V14.01,2014-04-20 09:51:00,
2014-04-20 05:56:00,25.2,13.6,30.03,SW,225,0.0,0.0,61,0.00,,---,0.00,VWS V14.01,2014-04-20 09:56:00,
2014-04-20 06:01:00,25.0,13.4,30.03,SW,225,0.0,0.0,61,0.00,,---,0.00,VWS V14.01,2014-04-20 10:01:00,
2014-04-20 06:06:00,24.8,13.6,30.03,SW,225,0.0,0.0,62,0.00,,---,0.00,VWS V14.01,2014-04-20 10:06:00,
2014-04-20 06:11:00,25.0,13.4,30.03,SW,225,0.0,0.0,61,0.00,,---,0.00,VWS V14.01,2014-04-20 10:11:00,
2014-04-20 06:16:00,25.0,13.8,30.03,ESE,112,0.0,0.0,62,0.00,,---,0.00,VWS V14.01,2014-04-20 10:16:00,
2014-04-20 06:21:00,25.0,13.8,30.03,ESE,112,0.0,0.0,62,0.00,,---,0.00,VWS V14.01,2014-04-20 10:21:00,
2014-04-20 06:26:00,25.3,14.2,30.03,SSE,158,0.0,0.0,62,0.00,,---,0.00,VWS V14.01,2014-04-20 10:26:00,
2014-04-20 06:31:00,25.3,14.2,30.03,SSE,158,0.0,0.0,62,0.00,,---,0.00,VWS V14.01,2014-04-20 10:31:00,
2014-04-20 06:36:00,25.2,14.0,30.03,SSE,158,0.0,0.0,62,0.00,,---,0.00,VWS V14.01,2014-04-20 10:36:00,
2014-04-20 06:41:00,25.3,14.2,30.03,SSE,158,0.0,0.0,62,0.00,,---,0.00,VWS V14.01,2014-04-20 10:41:00,
2014-04-20 06:46:00,25.5,14.3,30.03,SSE,158,0.0,0.0,62,0.00,,---,0.00,VWS V14.01,2014-04-20 10:46:00,
2014-04-20 06:49:00,25.7,14.5,30.03,SSE,158,0.0,0.0,62,0.00,,---,0.00,VWS V14.01,2014-04-20 10:49:00,
2014-04-20 06:54:00,25.9,14.7,30.03,SSE,158,0.0,0.0,62,0.00,,---,0.00,VWS V14.01,2014-04-20 10:54:00,
2014-04-20 06:59:00,26.1,14.8,30.03,SSE,158,0.0,0.0,62,0.00,,---,0.00,VWS V14.01,2014-04-20 10:59:00,
2014-04-20 07:04:00,26.2,14.6,30.06,SSE,158,0.0,0.0,61,0.00,,---,0.00,VWS V14.01,2014-04-20 11:04:00,
2014-04-20 07:09:00,26.4,14.8,30.06,SSE,158,0.0,0.0,61,0.00,,---,0.00,VWS V14.01,2014-04-20 11:09:00,
2014-04-20 07:14:00,26.8,15.1,30.06,East,90,0.0,0.0,61,0.00,,---,0.00,VWS V14.01,2014-04-20 11:14:00,
2014-04-20 07:19:00,27.1,15.5,30.06,East,90,0.0,0.0,61,0.00,,---,0.00,VWS V14.01,2014-04-20 11:19:00,
2014-04-20 07:24:00,27.5,15.8,30.06,East,90,0.0,0.0,61,0.00,,---,0.00,VWS V14.01,2014-04-20 11:24:00,
2014-04-20 07:29:00,27.9,15.8,30.06,East,90,0.0,0.0,60,0.00,,---,0.00,VWS V14.01,2014-04-20 11:29:00,
2014-04-20 07:34:00,28.6,16.5,30.06,East,90,0.0,0.0,60,0.00,,---,0.00,VWS V14.01,2014-04-20 11:34:00,
2014-04-20 07:39:00,28.9,16.8,30.06,ENE,68,0.0,0.0,60,0.00,,---,0.00,VWS V14.01,2014-04-20 11:39:00,
2014-04-20 07:44:00,30.0,18.6,30.06,ENE,68,0.0,0.0,62,0.00,,---,0.00,VWS V14.01,2014-04-20 11:44:00,
2014-04-20 07:49:00,30.7,19.3,30.03,NW,315,0.0,0.0,62,0.00,,---,0.00,VWS V14.01,2014-04-20 11:49:00,
2014-04-20 07:54:00,31.1,19.6,30.03,NW,315,0.0,0.0,62,0.00,,---,0.00,VWS V14.01,2014-04-20 11:54:00,
2014-04-20 07:59:00,32.0,20.5,30.03,NW,315,0.0,0.0,62,0.00,,---,0.00,VWS V14.01,2014-04-20 11:59:00,
2014-04-20 08:04:00,32.9,21.3,30.06,NNE,22,0.0,0.0,62,0.00,,---,0.00,VWS V14.01,2014-04-20 12:04:00,
2014-04-20 08:09:00,33.4,21.5,30.06,NE,45,0.0,0.0,61,0.00,,---,0.00,VWS V14.01,2014-04-20 12:09:00,
2014-04-20 08:14:00,33.8,21.0,30.06,NNE,22,0.0,0.0,59,0.00,,---,0.00,VWS V14.01,2014-04-20 12:14:00,
2014-04-20 08:19:00,34.3,21.1,30.06,North,0,0.0,0.0,58,0.00,,---,0.00,VWS V14.01,2014-04-20 12:19:00,
2014-04-20 08:24:00,34.7,20.6,30.06,NNE,22,0.0,0.0,56,0.00,,---,0.00,VWS V14.01,2014-04-20 12:24:00,
2014-04-20 08:29:00,35.4,20.9,30.06,East,90,0.0,1.1,55,0.00,,---,0.00,VWS V14.01,2014-04-20 12:29:00,
2014-04-20 08:34:00,36.1,20.2,30.03,NE,45,0.0,1.6,52,0.00,,---,0.00,VWS V14.01,2014-04-20 12:34:00,
2014-04-20 08:39:00,36.9,20.0,30.03,ENE,68,0.0,0.0,50,0.00,,---,0.00,VWS V14.01,2014-04-20 12:39:00,
2014-04-20 08:44:00,37.4,20.5,30.03,ENE,68,0.0,0.0,50,0.00,,---,0.00,VWS V14.01,2014-04-20 12:44:00,
2014-04-20 08:49:00,38.1,19.2,30.03,ENE,68,0.0,0.0,46,0.00,,---,0.00,VWS V14.01,2014-04-20 12:49:00,
2014-04-20 08:54:00,38.5,19.0,30.03,ENE,68,2.2,2.2,45,0.00,,---,0.00,VWS V14.01,2014-04-20 12:54:00,
2014-04-20 08:59:00,38.8,18.8,30.03,ENE,68,0.0,3.1,44,0.00,,---,0.00,VWS V14.01,2014-04-20 12:59:00,
2014-04-20 09:04:00,39.2,19.1,30.03,ENE,68,0.0,2.2,44,0.00,,---,0.00,VWS V14.01,2014-04-20 13:04:00,
2014-04-20 09:10:00,39.6,18.9,30.03,ENE,68,0.0,0.0,43,0.00,,---,0.00,VWS V14.01,2014-04-20 13:10:00,
2014-04-20 09:15:00,39.9,18.7,30.03,ENE,68,0.0,0.0,42,0.00,,---,0.00,VWS V14.01,2014-04-20 13:15:00,
2014-04-20 09:20:00,40.5,19.2,30.03,ENE,68,0.0,0.0,42,0.00,,---,0.00,VWS V14.01,2014-04-20 13:20:00,
2014-04-20 09:25:00,40.6,18.8,30.03,East,90,0.0,0.0,41,0.00,,---,0.00,VWS V14.01,2014-04-20 13:25:00,
2014-04-20 09:30:00,41.2,19.3,30.03,ENE,68,0.0,0.0,41,0.00,,---,0.00,VWS V14.01,2014-04-20 13:30:00,
2014-04-20 09:35:00,41.7,19.2,30.03,ENE,68,0.0,0.0,40,0.00,,---,0.00,VWS V14.01,2014-04-20 13:35:00,
2014-04-20 09:40:00,42.1,19.5,30.03,NE,45,0.0,0.0,40,0.00,,---,0.00,VWS V14.01,2014-04-20 13:40:00,
2014-04-20 09:45:00,42.1,18.9,30.03,West,270,0.0,0.0,39,0.00,,---,0.00,VWS V14.01,2014-04-20 13:45:00,
2014-04-20 09:50:00,42.3,19.1,30.03,ESE,112,0.0,0.0,39,0.00,,---,0.00,VWS V14.01,2014-04-20 13:50:00,
2014-04-20 09:55:00,42.6,19.4,30.03,NE,45,0.0,0.0,39,0.00,,---,0.00,VWS V14.01,2014-04-20 13:55:00,
2014-04-20 10:00:00,43.0,19.7,30.03,ENE,68,0.0,0.0,39,0.00,,---,0.00,VWS V14.01,2014-04-20 14:00:00,
2014-04-20 10:05:00,43.0,19.7,30.03,East,90,0.0,0.0,39,0.00,,---,0.00,VWS V14.01,2014-04-20 14:05:00,
2014-04-20 10:10:00,43.3,20.1,30.03,ENE,68,0.0,0.0,39,0.00,,---,0.00,VWS V14.01,2014-04-20 14:10:00,
2014-04-20 10:15:00,43.9,19.9,30.03,SE,135,0.0,0.0,38,0.00,,---,0.00,VWS V14.01,2014-04-20 14:15:00,
2014-04-20 10:20:00,44.1,20.1,30.03,SSE,158,0.0,0.0,38,0.00,,---,0.00,VWS V14.01,2014-04-20 14:20:00,
2014-04-20 10:25:00,44.2,20.3,30.03,West,270,0.0,0.0,38,0.00,,---,0.00,VWS V14.01,2014-04-20 14:25:00,
2014-04-20 10:30:00,44.4,20.4,30.00,NNE,22,0.0,0.0,38,0.00,,---,0.00,VWS V14.01,2014-04-20 14:30:00,
2014-04-20 10:35:00,44.8,20.1,30.00,East,90,0.0,0.0,37,0.00,,---,0.00,VWS V14.01,2014-04-20 14:35:00,
2014-04-20 10:40:00,45.1,20.4,30.00,SSW,202,0.0,0.0,37,0.00,,---,0.00,VWS V14.01,2014-04-20 14:40:00,
2014-04-20 10:45:00,45.7,20.9,30.00,ENE,68,0.0,0.0,37,0.00,,---,0.00,VWS V14.01,2014-04-20 14:45:00,
2014-04-20 10:50:00,46.0,21.2,30.00,NNE,22,0.0,0.0,37,0.00,,---,0.00,VWS V14.01,2014-04-20 14:50:00,
2014-04-20 10:55:00,46.4,20.9,30.00,ENE,68,0.0,0.0,36,0.00,,---,0.00,VWS V14.01,2014-04-20 14:55:00,
2014-04-20 11:00:00,46.8,21.2,30.00,ESE,112,0.9,0.9,36,0.00,,---,0.00,VWS V14.01,2014-04-20 15:00:00,
2014-04-20 11:05:00,46.6,20.4,30.00,SW,225,0.0,0.0,35,0.00,,---,0.00,VWS V14.01,2014-04-20 15:05:00,
2014-04-20 11:10:00,46.8,21.2,30.00,ENE,68,0.0,0.0,36,0.00,,---,0.00,VWS V14.01,2014-04-20 15:10:00,
2014-04-20 11:15:00,47.1,20.9,30.00,North,0,0.0,0.0,35,0.00,,---,0.00,VWS V14.01,2014-04-20 15:15:00,
2014-04-20 11:20:00,47.5,20.5,30.00,ESE,112,0.0,0.0,34,0.00,,---,0.00,VWS V14.01,2014-04-20 15:20:00,
2014-04-20 11:25:00,47.7,21.4,30.00,SSE,158,0.0,0.0,35,0.00,,---,0.00,VWS V14.01,2014-04-20 15:25:00,
2014-04-20 11:30:00,48.0,21.0,30.00,NE,45,0.0,0.0,34,0.00,,---,0.00,VWS V14.01,2014-04-20 15:30:00,
2014-04-20 11:35:00,48.0,21.0,30.00,NNW,338,0.0,0.0,34,0.00,,---,0.00,VWS V14.01,2014-04-20 15:35:00,
2014-04-20 11:40:00,48.2,21.2,30.00,ENE,68,0.0,0.0,34,0.00,,---,0.00,VWS V14.01,2014-04-20 15:40:00,
2014-04-20 11:45:00,48.6,20.8,29.97,NE,45,0.0,0.0,33,0.00,,---,0.00,VWS V14.01,2014-04-20 15:45:00,
2014-04-20 11:50:00,48.7,20.9,29.97,SW,225,0.0,0.0,33,0.00,,---,0.00,VWS V14.01,2014-04-20 15:50:00,
2014-04-20 11:55:00,48.7,21.6,29.97,NNE,22,0.0,0.0,34,0.00,,---,0.00,VWS V14.01,2014-04-20 15:55:00,
2014-04-20 12:00:00,49.3,22.1,29.97,SW,225,1.1,1.1,34,0.00,,---,0.00,VWS V14.01,2014-04-20 16:00:00,
2014-04-20 12:05:00,49.3,21.4,29.97,WSW,248,0.0,0.0,33,0.00,,---,0.00,VWS V14.01,2014-04-20 16:05:00,
2014-04-20 12:10:00,49.3,21.4,29.97,NNW,338,0.0,0.0,33,0.00,,---,0.00,VWS V14.01,2014-04-20 16:10:00,
2014-04-20 12:15:00,49.6,22.4,29.97,ENE,68,0.0,0.0,34,0.00,,---,0.00,VWS V14.01,2014-04-20 16:15:00,
2014-04-20 12:20:00,50.2,22.9,29.97,SW,225,0.0,2.5,34,0.00,,---,0.00,VWS V14.01,2014-04-20 16:20:00,
2014-04-20 12:25:00,50.2,21.5,29.97,NNE,22,0.0,0.0,32,0.00,,---,0.00,VWS V14.01,2014-04-20 16:25:00,
2014-04-20 12:30:00,50.7,22.7,29.97,ENE,68,0.0,0.0,33,0.00,,---,0.00,VWS V14.01,2014-04-20 16:30:00,
2014-04-20 12:35:00,51.1,22.3,29.97,North,0,0.0,0.0,32,0.00,,---,0.00,VWS V14.01,2014-04-20 16:35:00,
2014-04-20 12:40:00,51.4,22.6,29.97,ESE,112,0.0,0.0,32,0.00,,---,0.00,VWS V14.01,2014-04-20 16:40:00,
2014-04-20 12:45:00,52.0,22.3,29.94,East,90,0.0,2.7,31,0.00,,---,0.00,VWS V14.01,2014-04-20 16:45:00,
2014-04-20 12:50:00,52.0,22.3,29.94,ENE,68,1.3,1.3,31,0.00,,---,0.00,VWS V14.01,2014-04-20 16:50:00,